Flag for Austria Weather past 2 weeks in Bruck an der Leitha, Lower Austria, Austria

58 °F

Low clouds.

Feels Like: 59 °F
Forecast: 55 / 60 °F
Wind: 3 mph from East

Location: Wien / Schwechat-Flughafen

Current Time: Oct 7, 2015 at 5:32:26 AM

Latest Report: Oct 7, 2015 at 4:00 AM

Visibility: 5 mi

Pressure: 29.84 "Hg

Humidity: 90%

Dew point: 55 °F

Location of Bruck an der LeithaLocation

Historic Weather in Bruck an der Leitha — Graph


Bruck an der Leitha temperature yesterday

Maximum temperature yesterday: 64 °F (at 3:00 PM)
Minimum temperature yesterday: 49 °F (at 5:00 AM)
Average temperature yesterday: 57 °F

Past Weeks' High & Low Weather Summary

High71 °F (Sep 22, 3:00 PM)100% (Oct 6, 7:00 AM)30.52 "Hg (Oct 6, 7:00 AM)
Low42 °F (Oct 1, 7:00 AM)35% (Sep 22, 4:00 PM)29.70 "Hg (Sep 23, 4:00 AM)
Average56 °F72%30.16 "Hg
* Reported Sep 22 4:00 AM — Oct 7 4:00 AM, Bruck an der Leitha, Weather by CustomWeather, © 2015

Note: Actual official high and low records may vary slightly from our data, if they occured in-between our weather recording intervals... More about our weather records


Bruck an der Leitha weather history for previous 24 hours

Time TempWeatherWind HumidityBarometerVisibility
4:00 AM
Wed, Oct 7
58 °FLow clouds.3 mph90%29.84 "Hg5 mi
3:00 AM58 °FOvercast.5 mph90%29.83 "Hg5 mi
2:00 AM58 °FOvercast.5 mph91%29.83 "Hg5 mi
1:00 AM58 °FOvercast.5 mph90%29.83 "Hg5 mi
12:00 AM59 °FOvercast.5 mph88%29.83 "Hg5 mi
11:00 PM
Tue, Oct 6
60 °FOvercast.3 mph87%29.83 "Hg6 mi
10:00 PM61 °FOvercast.5 mph85%29.82 "Hg6 mi
9:00 PM61 °FOvercast.5 mph85%29.82 "Hg6 mi
8:00 PM62 °FOvercast.5 mph84%29.82 "Hg6 mi
7:00 PM62 °FOvercast.5 mph85%29.82 "Hg6 mi
6:00 PM62 °FOvercast.6 mph82%29.82 "Hg5 mi
5:00 PM63 °FOvercast.3 mph79%29.82 "Hg5 mi
4:00 PM64 °FOvercast.5 mph78%29.83 "Hg5 mi
3:00 PM64 °FOvercast.5 mph77%29.83 "Hg6 mi
2:00 PM64 °FOvercast.6 mph78%29.85 "Hg6 mi
1:00 PM62 °FOvercast.6 mph79%29.88 "Hg5 mi
12:00 PM57 °FLow clouds.6 mph90%29.90 "Hg3 mi
11:00 AM57 °FLow clouds.5 mph91%29.90 "Hg2 mi
10:00 AM56 °FPartly sunny.5 mph93%29.91 "Hg2 mi
9:00 AM53 °FLow clouds.5 mph97%29.91 "Hg1 mi
8:00 AM53 °FLow clouds.5 mph99%29.90 "Hg1 mi
7:00 AM53 °FLight rain. Low clouds.6 mph100%29.90 "Hg1 mi
5:00 AM49 °FPassing clouds.N/A97%29.91 "Hg4 mi
Weather by CustomWeather, © 2015

See weather overviewHow to use our weather pages